Content
SEND FEEDBACK

Daily
Averages
Monthly
Summary
Canada

VANCOUVER - CITY HALL, BRITISH COLUMBIA


Home > North America > Canada > British Columbia
Elevation: 283 feet     Latitude: 49 17N     Longitude: 123 07W

WEATHER
 
SELECT A DAY
Number of Records: 170,098;   Date Range: 4/23/95 - 8/27/14
 
SHARE

PRINT THIS DATA

[ ← Previous Day ]
WEATHER ALMANAC - JANUARY 20, 2013
[ Next Day → ]
[ °C ]   °F
Weather ElementAverageHighLow
Temperature32.4 °F36.7 °F (1:00 pm) (5:00 pm)
Dewpoint31.2 °F35.6 °F (1:00 pm) (7:00 pm)
Humidity94.9 %100 % (4:00 am)89 % (1:00 am)
Barometer29.19 in30.40 in (2:00 am) (7:00 pm)

Weather ElementAverage
Weather ElementTotal
Precipitation---
Heating Degree Days46.7 (Base 65)
Averaged from 26 records on January 20, 2013
WEATHER CONDITIONS BREAKOUT
WIND DIRECTION BREAKOUT
WEATHER BY HOUR - JANUARY 20, 2013
[ °C ]   °F
Local TimeTemperatureDewpointHumidityBarometerVisibilityWind DirectionWind SpeedGust SpeedPrecipitationEventsConditions
1:00 AM34.2 °F31.3 °F89 %30.39 inCalm
2:00 AM33.6 °F30.7 °F89 %30.40 inCalm
3:00 AM33.4 °F30.9 °F90 %30.40 inCalm
4:00 AM33.0 °F31.0 °F91 %30.39 inCalm
4:00 AM31.3 °F31.3 °F100 %30.39 inCalm
5:00 AM31.6 °F30.4 °F95 %30.39 inCalm
6:00 AM31.1 °F29.7 °F94 %30.38 inCalm
7:00 AM31.3 °F30.2 °F96 %30.38 inCalm
8:00 AM31.6 °F31.3 °F99 %30.38 inCalm
9:00 AM31.8 °F31.3 °F98 %30.39 inCalm
10:00 AM34.0 °F33.0 °F95 %30.39 inCalm
10:00 AM34.0 °F33.1 °F96 %30.39 inCalm
11:00 AM34.9 °F33.8 °F96 %30.39 inCalm
12:00 PM36.0 °F34.9 °F96 %30.38 inCalm
1:00 PM36.7 °F35.6 °F96 %30.35 inCalm
2:00 PM36.3 °F35.2 °F96 %30.33 inCalm
3:00 PM35.6 °F34.5 °F96 %30.33 inCalm
4:00 PM36.0 °F35.0 °F93 %30.32 inCalm
4:00 PM35.6 °F34.7 °F97 %30.32 inCalm
5:00 PM0.0 °F0.0 °FNorth
6:00 PM34.5 °F33.6 °F97 %30.30 inCalm
7:00 PM34.2 °F33.3 °F97 %30.29 inCalm
8:00 PM33.4 °F31.8 °F94 %30.29 inCalm
9:00 PM33.4 °F32.0 °F94 %30.29 inCalm
10:00 PM32.9 °F31.3 °F94 %30.29 inCalm
11:00 PM31.8 °F30.6 °F95 %30.29 inCalm
Hourly data recorded from CWWA, located miles away from Vancouver - City Hall, British Columbia







STORIES FROM OUR PARTNERS